User: anonymous   Login
Location: Unspecified
(0.0000°N, 0.0000°E)
Time: 04:30:00
(UTC+00:00)
Language:

UME 1 - Orbit

View from above orbital plane
View from above orbital plane
View from above satellite
View from above satellite

Ground track
Ground track

The orbit data is extracted from the following two-line orbital elements,

1 08709U 76019A   24170.92806356  .00000035  00000-0  96303-4 0  9993
2 08709  69.6726 213.8766 0008276  78.1917 349.4414 13.71613017417226
Epoch (UTC): 18 June 2024 22:16:24
Eccentricity: 0.0008276
inclination: 69.6726°
perigee height: 987 km
apogee height: 1000 km
right ascension of ascending node: 213.8766°
argument of perigee: 78.1917°
revolutions per day: 13.71613017
mean anomaly at epoch: 349.4414°
orbit number at epoch: 41722

The dashed part of the orbit path shows where the satellite is in the earth's shadow,  

DLR